"Pseudo-MPEC" for ZTF09L2

Created 2019 Nov 9 6:07:26 UT using Find_Orb

Click here for an explanation of pseudo-MPECs

 
 Astrometry: 
     ZTF09L2  C2019 11 05.37331904 29 39.85 +48 00 19.2    ~B90b 20.02rUNEOCPI41
     ZTF09L2  C2019 11 05.47705004 29 36.02 +48 01 40.1    ~B90b 20.17rUNEOCPI41
     ZTF09L2  C2019 11 07.28644004 28 32.93 +48 25 00.9    ~B90b 20.58gUNEOCPI41
     ZTF09L2  C2019 11 08.43568104 27 46.71 +48 39 18.7    ~B90b 20.02rUNEOCPI41
     ZTF09L2  C2019 11 08.43797004 27 46.62 +48 39 20.4    ~B90b 20.08rUNEOCPI41

Station data:
(I41) Palomar Mountain--ZTF  (N33.357340 W116.859780)  US/California. 1.2-m
   f/2.44 Oschin Schmidt + CCD.

Orbital elements:  ZTF09L2
   Perihelion 2019 Dec 9.412600 +/- 13 TT =  9:54:08 (JD 2458826.912600)
Epoch 2019 Nov  8.0 TT = JDT 2458795.5   Earth MOID: 0.9082   AutoNEOCP
M 352.88399064 +/- 3.1              (J2000 ecliptic)
n   0.22653360 +/- 0.0103           Peri.   77.97195 +/- 6
a   2.66510483 +/- 0.0811           Node   355.17281 +/- 1.2
e   0.3136298 +/- 0.0121            Incl.   14.96408 +/- 0.28
P   4.35                   H 18.1   G  0.15   U  9.7  
q 1.82924828 +/- 0.0239    Q 3.50096139 +/- 0.139
From 5 observations 2019 Nov. 5-8; mean residual 0".10
Residuals in arcseconds: 
191105 I41  .09-  .19+    191107 I41  .00   .04+    191108 I41  .07+  .02+    
191105 I41  .09+  .21-    191108 I41  .07-  .03-    

Ephemerides (geocentric):
Date (UTC) HH   RA              Dec         delta   r     elong  mag " sig PA
---- -- -- --  -------------   -----------  ------ ------ -----  --- ---- ---
2019 11 09 06  04 27 12.482   +48 49 07.82  .95248 1.8418 142.8 20.3 .920  53
2019 11 09 07  04 27 10.667   +48 49 37.70  .95232 1.8417 142.9 20.3 .970  53
2019 11 09 08  04 27 08.847   +48 50 07.54  .95215 1.8417 142.9 20.3 1.02  54
2019 11 09 09  04 27 07.022   +48 50 37.34  .95199 1.8417 142.9 20.3 1.07  54
2019 11 09 10  04 27 05.193   +48 51 07.11  .95182 1.8416 142.9 20.3 1.13  54
2019 11 09 11  04 27 03.358   +48 51 36.84  .95166 1.8416 142.9 20.3 1.18  54
2019 11 09 12  04 27 01.519   +48 52 06.54  .95149 1.8416 143.0 20.3 1.23  54
2019 11 09 13  04 26 59.675   +48 52 36.19  .95133 1.8415 143.0 20.3 1.29  54
2019 11 09 14  04 26 57.827   +48 53 05.82  .95117 1.8415 143.0 20.3 1.35  54
2019 11 09 15  04 26 55.973   +48 53 35.40  .95100 1.8415 143.0 20.3 1.40  54
2019 11 09 16  04 26 54.115   +48 54 04.95  .95084 1.8414 143.1 20.3 1.46  54
2019 11 09 17  04 26 52.252   +48 54 34.46  .95068 1.8414 143.1 20.3 1.52  54
2019 11 09 18  04 26 50.384   +48 55 03.93  .95051 1.8414 143.1 20.3 1.58  54
2019 11 09 19  04 26 48.512   +48 55 33.36  .95035 1.8413 143.1 20.3 1.64  54
2019 11 09 20  04 26 46.634   +48 56 02.76  .95019 1.8413 143.2 20.3 1.70  54
2019 11 09 21  04 26 44.752   +48 56 32.12  .95003 1.8413 143.2 20.3 1.76  54
2019 11 09 22  04 26 42.866   +48 57 01.44  .94987 1.8412 143.2 20.3 1.83  54
2019 11 09 23  04 26 40.974   +48 57 30.73  .94971 1.8412 143.2 20.3 1.89  54
2019 11 10 00  04 26 39.078   +48 57 59.98  .94954 1.8412 143.3 20.3 1.96  54
2019 11 10 01  04 26 37.177   +48 58 29.19  .94938 1.8411 143.3 20.3 2.02  54
2019 11 10 02  04 26 35.271   +48 58 58.36  .94922 1.8411 143.3 20.3 2.09  54
2019 11 10 03  04 26 33.361   +48 59 27.49  .94906 1.8411 143.3 20.3 2.16  55
2019 11 10 04  04 26 31.446   +48 59 56.59  .94890 1.8410 143.4 20.3 2.23  55
2019 11 10 05  04 26 29.526   +49 00 25.65  .94875 1.8410 143.4 20.3 2.30  55
2019 11 10 06  04 26 27.601   +49 00 54.67  .94859 1.8410 143.4 20.3 2.37  55
2019 11 10 07  04 26 25.672   +49 01 23.65  .94843 1.8409 143.4 20.3 2.44  55
2019 11 10 08  04 26 23.738   +49 01 52.60  .94827 1.8409 143.5 20.3 2.51  55
2019 11 10 09  04 26 21.799   +49 02 21.50  .94811 1.8409 143.5 20.3 2.58  55
2019 11 10 10  04 26 19.856   +49 02 50.37  .94795 1.8408 143.5 20.3 2.66  55
2019 11 10 11  04 26 17.908   +49 03 19.20  .94780 1.8408 143.5 20.3 2.73  55
2019 11 10 12  04 26 15.955   +49 03 47.99  .94764 1.8408 143.5 20.3 2.81  55
2019 11 10 13  04 26 13.998   +49 04 16.74  .94748 1.8407 143.6 20.3 2.89  55
2019 11 10 14  04 26 12.036   +49 04 45.46  .94733 1.8407 143.6 20.3 2.97  55
2019 11 10 15  04 26 10.069   +49 05 14.13  .94717 1.8407 143.6 20.3 3.04  55
2019 11 10 16  04 26 08.098   +49 05 42.77  .94701 1.8406 143.6 20.3 3.12  55
2019 11 10 17  04 26 06.122   +49 06 11.37  .94686 1.8406 143.7 20.3 3.20  55
2019 11 10 18  04 26 04.141   +49 06 39.93  .94670 1.8406 143.7 20.3 3.29  55
2019 11 10 19  04 26 02.156   +49 07 08.45  .94655 1.8405 143.7 20.3 3.37  55
2019 11 10 20  04 26 00.166   +49 07 36.93  .94639 1.8405 143.7 20.3 3.45  55
2019 11 10 21  04 25 58.172   +49 08 05.38  .94624 1.8405 143.8 20.3 3.53  54
2019 11 10 22  04 25 56.172   +49 08 33.78  .94608 1.8404 143.8 20.3 3.62  54
2019 11 10 23  04 25 54.169   +49 09 02.15  .94593 1.8404 143.8 20.3 3.71  54
2019 11 11 00  04 25 52.160   +49 09 30.47  .94578 1.8404 143.8 20.3 3.79  54
2019 11 11 01  04 25 50.147   +49 09 58.76  .94562 1.8403 143.9 20.3 3.88  54
2019 11 11 02  04 25 48.130   +49 10 27.01  .94547 1.8403 143.9 20.3 3.97  54
2019 11 11 03  04 25 46.107   +49 10 55.22  .94532 1.8403 143.9 20.3 4.06  54
2019 11 11 04  04 25 44.081   +49 11 23.38  .94517 1.8402 143.9 20.3 4.15  54
2019 11 11 05  04 25 42.049   +49 11 51.51  .94501 1.8402 143.9 20.3 4.24  54